Memphis, TN

12:55 PM CST on February 24, 2018 (GMT -0600)
Memphis International

Weather History for KMEM - May, 2012

Change the Weather History Date:

Thursday, May 10, 2012

  Actual Average Record
Temperature  
Mean Temperature 67 °F 70 °F  
Max Temperature 78 °F 80 °F 90 °F (1962)
Min Temperature 55 °F 61 °F 40 °F (1966)
Degree Days  
Heating Degree Days 0 1  
Month to date heating degree days 0 11  
Since 1 July heating degree days 2171 2956  
Cooling Degree Days 2 6  
Month to date cooling degree days 116 49  
Year to date cooling degree days 338 144  
Growing Degree Days 16 (Base 50)    
Moisture  
Dew Point 46 °F    
Average Humidity 49    
Maximum Humidity 67    
Minimum Humidity 30    
Precipitation  
Precipitation 0.00 in 0.18 in 1.51 in (1952)
Month to date precipitation 1.03 1.87  
Year to date precipitation 11.18 20.90  
Snow  
Snow 0.00 in 0.00 in - ()
Month to date snowfall 0.0 0.0  
Since 1 July snowfall 1.4 3.8  
Snow Depth 0.00 in    
Sea Level Pressure  
Sea Level Pressure 29.96 in    
Wind  
Wind Speed 4 mph (NE)    
Max Wind Speed 13 mph    
Max Gust Speed 16 mph    
Visibility 10 miles    
Events      
T = Trace of Precipitation, MM = Missing Value Source: NWS Daily Summary

Daily Weather History Graph

Daily Weather History Graph

Search for Another Location

Airport or City:

Trip Planner

Search our weather history database for the weather conditions in past years. The results will help you decide how hot, cold, wet, or windy it might be!

Date:

Astronomy

May. 10, 2012 Rise Set
Actual Time 5:59 AM CDT 7:53 PM CDT
Civil Twilight 5:32 AM CDT 8:21 PM CDT
Nautical Twilight 4:58 AM CDT 8:54 PM CDT
Astronomical Twilight 4:22 AM CDT 9:30 PM CDT
Moon No Moon Rise 10:24 AM CDT (5/10)
Length of Visible Light 14h 48m
Length of Day
13h 53m
Waning Gibbous, 73% of the Moon is Illuminated
May 10
Waning Gibbous
May 12
Last Quarter
May 20
New
May 28
First Quarter
Jun 4
Full

Hourly Weather History & Observations

Time (CDT) Temp. Dew Point Humidity Pressure Visibility Wind Dir Wind Speed Gust Speed Precip Events Conditions
12:54 AM 64.0 °F 46.0 °F 52% 29.93 in 10.0 mi North 5.8 mph - N/A   Clear
1:54 AM 63.0 °F 46.9 °F 56% 29.93 in 10.0 mi ENE 5.8 mph - N/A   Clear
2:54 AM 63.0 °F 46.0 °F 54% 29.93 in 10.0 mi Variable 4.6 mph - N/A   Clear
3:54 AM 64.0 °F 45.0 °F 50% 29.93 in 10.0 mi ENE 4.6 mph - N/A   Clear
4:54 AM 61.0 °F 46.0 °F 58% 29.94 in 10.0 mi ENE 4.6 mph - N/A   Clear
5:54 AM 57.9 °F 46.9 °F 67% 29.95 in 10.0 mi Calm Calm - N/A   Partly Cloudy
6:54 AM 59.0 °F 48.0 °F 67% 29.98 in 10.0 mi Calm Calm - N/A   Partly Cloudy
7:54 AM 64.4 °F 48.2 °F 56% 29.99 in 10.0 mi Calm Calm - N/A   Partly Cloudy
8:54 AM 68.0 °F 46.9 °F 47% 29.99 in 10.0 mi Calm Calm - N/A   Clear
9:54 AM 70.0 °F 44.1 °F 39% 29.99 in 10.0 mi Calm Calm - N/A   Clear
10:54 AM 72.0 °F 44.1 °F 37% 30.00 in 10.0 mi Calm Calm - N/A   Partly Cloudy
11:54 AM 75.0 °F 44.1 °F 33% 29.99 in 10.0 mi Calm Calm - N/A   Partly Cloudy
12:54 PM 75.0 °F 45.0 °F 34% 29.98 in 10.0 mi ENE 5.8 mph - N/A   Partly Cloudy
1:54 PM 77.0 °F 46.0 °F 33% 29.96 in 10.0 mi Variable 3.5 mph - N/A   Partly Cloudy
2:54 PM 77.0 °F 46.9 °F 34% 29.95 in 10.0 mi Variable 3.5 mph - N/A   Partly Cloudy
3:54 PM 78.1 °F 46.0 °F 32% 29.94 in 10.0 mi North 9.2 mph - N/A   Partly Cloudy
4:54 PM 78.1 °F 45.0 °F 31% 29.93 in 10.0 mi NW 6.9 mph - N/A   Partly Cloudy
5:54 PM 77.0 °F 45.0 °F 32% 29.94 in 10.0 mi NNE 6.9 mph - N/A   Partly Cloudy
6:54 PM 75.0 °F 45.0 °F 34% 29.94 in 10.0 mi North 4.6 mph - N/A   Partly Cloudy
7:54 PM 73.0 °F 46.0 °F 38% 29.94 in 10.0 mi NNE 9.2 mph - N/A   Partly Cloudy
8:54 PM 71.1 °F 46.9 °F 42% 29.95 in 10.0 mi ENE 6.9 mph - N/A   Partly Cloudy
9:54 PM 70.0 °F 46.9 °F 44% 29.97 in 10.0 mi ENE 5.8 mph - N/A   Partly Cloudy
10:54 PM 66.9 °F 48.0 °F 51% 29.98 in 10.0 mi East 5.8 mph - N/A   Clear
11:54 PM 68.0 °F 48.0 °F 49% 29.99 in 10.0 mi ENE 5.8 mph - N/A   Clear